START_TIME,STEP,MOV.,M34,t_acc.,L5,t_acc.,L18,t_acc.,L14,t_acc.
1979-08-01 15:00:23.580 ,1,0,0.,12.0,0.,12.0,0.,12.0,0.,12.0
1979-08-01 15:00:35.580 ,1,0,0.,12.0,0.,12.0,0.,12.0,0.,12.0
1979-08-01 15:00:47.580 ,2,1,0.,12.0,0.,12.0,0.,12.0,0.,12.0
1979-08-01 15:00:59.580 ,2,1,0.,12.0,0.,12.0,0.,12.0,0.,12.0
1979-08-01 15:01:11.580 ,2,0,0.,12.0,0.,12.0,0.,12.0,0.,12.0
1979-08-01 15:01:23.580 ,2,0,0.,12.0,0.,12.0,0.,12.0,0.,12.0
1979-08-01 15:01:35.580 ,3,1,0.,12.0,0.,12.0,0.,12.0,0.,12.0
1979-08-01 15:01:47.580 ,3,1,0.,12.0,0.,12.0,0.,12.0,0.,12.0
1979-08-01 15:01:59.580 ,3,0,0.,12.0,0.,12.0,0.,12.0,0.,12.0
1979-08-01 15:02:11.580 ,3,0,0.,12.0,0.,12.0,0.,12.0,0.,12.0
1979-08-01 15:02:23.580 ,4,1,0.,12.0,0.,12.0,0.,12.0,0.,12.0
1979-08-01 15:02:35.580 ,4,1,0.,12.0,0.,12.0,0.,12.0,0.,12.0
1979-08-01 15:02:47.580 ,4,0,0.,12.0,0.,12.0,0.,12.0,0.,12.0
1979-08-01 15:02:59.580 ,4,0,0.,12.0,0.,12.0,0.,12.0,0.,12.0
1979-08-01 15:03:11.580 ,5,1,0.,12.0,0.,12.0,0.,12.0,0.,12.0
1979-08-01 15:03:23.580 ,5,1,0.,12.0,0.,12.0,0.,12.0,0.,12.0
1979-08-01 15:03:35.580 ,5,0,0.,12.0,0.,12.0,0.,12.0,0.,12.0
1979-08-01 15:03:47.580 ,5,0,0.,12.0,0.,12.0,0.,12.0,0.,12.0
1979-08-01 15:03:59.580 ,6,1,0.,12.0,0.,12.0,0.,12.0,0.,12.0
1979-08-01 15:04:11.580 ,6,1,0.,12.0,0.,12.0,0.,12.0,0.,12.0
1979-08-01 15:04:23.580 ,6,0,0.,12.0,0.,12.0,0.,12.0,0.,12.0
1979-08-01 15:04:35.580 ,6,0,0.,12.0,0.,12.0,0.,12.0,0.,12.0
1979-08-01 15:04:47.580 ,7,1,0.,12.0,0.,12.0,0.,12.0,0.,12.0
1979-08-01 15:04:59.580 ,7,1,0.,12.0,0.,12.0,0.,12.0,0.,12.0
1979-08-01 15:05:11.580 ,0,0,0.,12.0,0.,12.0,0.,12.0,0.,12.0
1979-08-01 15:05:23.580 ,0,0,0.,12.0,0.,12.0,0.,12.0,1.,12.0
1979-08-01 15:05:35.580 ,7,1,0.,12.0,0.,12.0,0.,12.0,0.,12.0
1979-08-01 15:05:47.580 ,7,1,0.,12.0,0.,12.0,0.,12.0,0.,12.0
1979-08-01 15:05:59.580 ,7,0,0.,12.0,0.,12.0,0.,12.0,0.,12.0
1979-08-01 15:06:11.580 ,7,0,0.,12.0,0.,12.0,0.,12.0,0.,12.0
1979-08-01 15:06:23.580 ,6,1,0.,12.0,0.,12.0,0.,12.0,0.,12.0
1979-08-01 15:06:35.580 ,6,1,0.,12.0,0.,12.0,0.,12.0,0.,12.0
1979-08-01 15:06:47.580 ,6,0,0.,12.0,0.,12.0,0.,12.0,0.,12.0
1979-08-01 15:06:59.580 ,6,0,0.,12.0,0.,12.0,0.,12.0,0.,12.0
1979-08-01 15:07:11.580 ,5,1,0.,12.0,0.,12.0,0.,12.0,0.,12.0
1979-08-01 15:07:23.580 ,5,1,0.,12.0,0.,12.0,0.,12.0,0.,12.0
1979-08-01 15:07:35.580 ,5,0,0.,12.0,0.,12.0,0.,12.0,0.,12.0
1979-08-01 15:07:47.580 ,5,0,0.,12.0,0.,12.0,0.,12.0,0.,12.0
1979-08-01 15:07:59.580 ,4,1,0.,12.0,0.,12.0,0.,12.0,0.,12.0
1979-08-01 15:08:11.580 ,4,1,0.,12.0,0.,12.0,0.,12.0,0.,12.0
1979-08-01 15:08:23.580 ,4,0,0.,12.0,0.,12.0,0.,12.0,0.,12.0
1979-08-01 15:08:35.580 ,4,0,0.,12.0,0.,12.0,0.,12.0,0.,12.0
1979-08-01 15:08:47.580 ,3,1,0.,12.0,0.,12.0,0.,12.0,0.,12.0
1979-08-01 15:08:59.580 ,3,1,0.,12.0,0.,12.0,0.,12.0,0.,12.0
1979-08-01 15:09:11.580 ,3,0,0.,12.0,0.,12.0,0.,12.0,0.,12.0
1979-08-01 15:09:23.580 ,3,0,0.,12.0,0.,12.0,0.,12.0,0.,12.0
1979-08-01 15:09:35.580 ,2,1,0.,12.0,0.,12.0,0.,12.0,0.,12.0
1979-08-01 15:09:47.580 ,2,1,0.,12.0,0.,12.0,0.,12.0,0.,12.0
1979-08-01 15:09:59.580 ,2,0,0.,12.0,0.,12.0,0.,12.0,0.,12.0
1979-08-01 15:10:11.580 ,2,0,0.,12.0,0.,12.0,0.,12.0,0.,12.0
1979-08-01 15:10:23.580 ,1,1,0.,12.0,0.,12.0,0.,12.0,0.,12.0
1979-08-01 15:10:35.580 ,1,1,0.,12.0,0.,12.0,0.,12.0,0.,12.0
1979-08-01 15:10:47.580 ,1,0,0.,12.0,0.,12.0,0.,12.0,0.,12.0
1979-08-01 15:10:59.580 ,1,0,0.,12.0,0.,12.0,0.,12.0,0.,12.0
1979-08-01 15:11:11.580 ,0,0,0.,12.0,0.,12.0,0.,12.0,0.,12.0
1979-08-01 15:11:23.580 ,0,0,0.,12.0,0.,12.0,0.,12.0,0.,12.0
1979-08-01 15:11:35.580 ,0,0,0.,12.0,0.,12.0,1.,12.0,0.,12.0
1979-08-01 15:11:47.580 ,0,0,0.,12.0,0.,12.0,0.,12.0,0.,12.0
1979-08-01 15:11:59.580 ,0,0,0.,12.0,0.,12.0,0.,12.0,0.,12.0
1979-08-01 15:12:11.580 ,0,0,0.,12.0,0.,12.0,0.,12.0,0.,12.0
1979-08-01 15:12:23.580 ,0,0,0.,12.0,0.,12.0,0.,12.0,0.,12.0
1979-08-01 15:12:35.580 ,0,0,0.,12.0,0.,12.0,0.,12.0,0.,12.0
1979-08-01 15:12:47.580 ,1,1,0.,12.0,0.,12.0,0.,12.0,0.,12.0
1979-08-01 15:12:59.580 ,1,1,0.,12.0,0.,12.0,0.,12.0,0.,12.0
1979-08-01 15:13:11.580 ,1,0,0.,12.0,0.,12.0,0.,12.0,0.,12.0
1979-08-01 15:13:23.580 ,1,0,0.,12.0,0.,12.0,0.,12.0,0.,12.0
1979-08-01 15:13:35.580 ,2,1,0.,12.0,0.,12.0,0.,12.0,0.,12.0
1979-08-01 15:13:47.580 ,2,1,0.,12.0,0.,12.0,0.,12.0,0.,12.0
1979-08-01 15:13:59.580 ,2,0,0.,12.0,0.,12.0,0.,12.0,0.,12.0
1979-08-01 15:14:11.580 ,2,0,0.,12.0,0.,12.0,0.,12.0,0.,12.0
1979-08-01 15:14:23.580 ,3,1,0.,12.0,0.,12.0,0.,12.0,0.,12.0
1979-08-01 15:14:35.580 ,3,1,0.,12.0,0.,12.0,0.,12.0,0.,12.0
1979-08-01 15:14:47.580 ,3,0,0.,12.0,0.,12.0,0.,12.0,0.,12.0
1979-08-01 15:14:59.580 ,3,0,0.,12.0,0.,12.0,0.,12.0,0.,12.0
1979-08-01 15:15:11.580 ,4,1,0.,12.0,0.,12.0,0.,12.0,0.,12.0
1979-08-01 15:15:23.580 ,4,1,0.,12.0,0.,12.0,0.,12.0,0.,12.0
1979-08-01 15:15:35.580 ,4,0,0.,12.0,0.,12.0,0.,12.0,0.,12.0
1979-08-01 15:15:47.580 ,4,0,0.,12.0,0.,12.0,0.,12.0,0.,12.0
1979-08-01 15:15:59.580 ,5,1,0.,12.0,0.,12.0,0.,12.0,0.,12.0
1979-08-01 15:16:11.580 ,5,1,0.,12.0,0.,12.0,0.,12.0,0.,12.0
1979-08-01 15:16:23.580 ,5,0,0.,12.0,0.,12.0,0.,12.0,0.,12.0
1979-08-01 15:16:35.580 ,5,0,0.,12.0,0.,12.0,0.,12.0,0.,12.0
1979-08-01 15:16:47.580 ,6,1,0.,12.0,0.,12.0,0.,12.0,0.,12.0
1979-08-01 15:16:59.580 ,6,1,0.,12.0,0.,12.0,0.,12.0,0.,12.0
1979-08-01 15:17:11.580 ,6,0,0.,12.0,0.,12.0,0.,12.0,0.,12.0
1979-08-01 15:17:23.580 ,6,0,0.,12.0,0.,12.0,0.,12.0,0.,12.0
1979-08-01 15:18:23.580 ,0,0,0.,12.0,0.,12.0,0.,12.0,0.,12.0
1979-08-01 15:18:35.580 ,0,0,0.,12.0,0.,12.0,0.,12.0,0.,12.0
1979-08-01 15:18:47.580 ,0,0,0.,12.0,0.,12.0,0.,12.0,0.,12.0
1979-08-01 15:18:59.580 ,0,0,0.,12.0,0.,12.0,0.,12.0,0.,12.0
1979-08-01 15:19:11.580 ,6,1,0.,12.0,0.,12.0,0.,12.0,0.,12.0
1979-08-01 15:19:23.580 ,6,1,0.,12.0,0.,12.0,0.,12.0,0.,12.0
1979-08-01 15:19:35.580 ,6,0,0.,12.0,0.,12.0,0.,12.0,0.,12.0
1979-08-01 15:19:47.580 ,6,0,0.,12.0,0.,12.0,0.,12.0,0.,12.0
1979-08-01 15:19:59.580 ,5,1,0.,12.0,0.,12.0,0.,12.0,0.,12.0
1979-08-01 15:20:11.580 ,5,1,0.,12.0,0.,12.0,0.,12.0,0.,12.0
1979-08-01 15:20:23.580 ,5,0,0.,12.0,0.,12.0,0.,12.0,0.,12.0
1979-08-01 15:20:35.580 ,5,0,0.,12.0,0.,12.0,0.,12.0,0.,12.0
1979-08-01 15:20:47.580 ,4,1,0.,12.0,0.,12.0,0.,12.0,0.,12.0
1979-08-01 15:20:59.580 ,4,1,0.,12.0,0.,12.0,0.,12.0,0.,12.0
1979-08-01 15:21:11.580 ,4,0,0.,12.0,0.,12.0,0.,12.0,0.,12.0
1979-08-01 15:21:23.580 ,4,0,0.,12.0,0.,12.0,0.,12.0,0.,12.0
1979-08-01 15:21:35.580 ,3,1,0.,12.0,0.,12.0,0.,12.0,0.,12.0
1979-08-01 15:21:47.580 ,3,1,0.,12.0,0.,12.0,0.,12.0,0.,12.0
1979-08-01 15:21:59.580 ,3,0,0.,12.0,0.,12.0,0.,12.0,0.,12.0
1979-08-01 15:22:11.580 ,3,0,0.,12.0,0.,12.0,0.,12.0,0.,12.0
1979-08-01 15:22:23.580 ,2,1,0.,12.0,0.,12.0,0.,12.0,0.,12.0
1979-08-01 15:22:35.580 ,2,1,0.,12.0,0.,12.0,0.,12.0,0.,12.0
1979-08-01 15:22:47.580 ,2,0,0.,12.0,0.,12.0,0.,12.0,0.,12.0
1979-08-01 15:22:59.580 ,2,0,0.,12.0,0.,12.0,0.,12.0,0.,12.0
1979-08-01 15:23:59.580 ,0,0,0.,12.0,0.,12.0,0.,12.0,0.,12.0
1979-08-01 15:24:11.580 ,0,0,0.,12.0,0.,12.0,0.,12.0,0.,12.0
1979-08-01 15:24:23.580 ,0,0,0.,12.0,0.,12.0,0.,12.0,0.,12.0
1979-08-01 15:24:35.580 ,0,0,0.,12.0,0.,12.0,0.,12.0,0.,12.0
1979-08-01 15:24:47.580 ,0,1,0.,12.0,0.,12.0,0.,12.0,0.,12.0
1979-08-01 15:24:59.580 ,0,1,0.,12.0,0.,12.0,0.,12.0,0.,12.0
1979-08-01 15:25:11.580 ,0,0,0.,12.0,0.,12.0,0.,12.0,0.,12.0
1979-08-01 15:25:23.580 ,0,0,0.,12.0,0.,12.0,0.,12.0,0.,12.0
1979-08-01 15:25:35.580 ,1,1,0.,12.0,0.,12.0,0.,12.0,0.,12.0
1979-08-01 15:25:47.580 ,1,1,0.,12.0,0.,12.0,0.,12.0,0.,12.0
1979-08-01 15:25:59.580 ,1,0,0.,12.0,0.,12.0,0.,12.0,0.,12.0
1979-08-01 15:26:11.580 ,1,0,0.,12.0,0.,12.0,0.,12.0,0.,12.0
1979-08-01 15:26:23.580 ,2,1,0.,12.0,0.,12.0,0.,12.0,0.,12.0
1979-08-01 15:26:35.580 ,2,1,0.,12.0,0.,12.0,0.,12.0,0.,12.0
1979-08-01 15:26:47.580 ,2,0,0.,12.0,0.,12.0,0.,12.0,0.,12.0
1979-08-01 15:26:59.580 ,2,0,0.,12.0,0.,12.0,0.,12.0,0.,12.0
1979-08-01 15:27:11.580 ,3,1,0.,12.0,0.,12.0,0.,12.0,0.,12.0
1979-08-01 15:27:23.580 ,3,1,0.,12.0,0.,12.0,0.,12.0,0.,12.0
1979-08-01 15:27:35.580 ,3,0,0.,12.0,0.,12.0,0.,12.0,0.,12.0
1979-08-01 15:27:47.580 ,3,0,0.,12.0,0.,12.0,0.,12.0,0.,12.0
1979-08-01 15:27:59.580 ,4,1,0.,12.0,0.,12.0,0.,12.0,0.,12.0
1979-08-01 15:28:11.580 ,4,1,0.,12.0,0.,12.0,0.,12.0,0.,12.0
1979-08-01 15:28:23.580 ,4,0,0.,12.0,0.,12.0,0.,12.0,0.,12.0
1979-08-01 15:28:35.580 ,4,0,0.,12.0,0.,12.0,0.,12.0,0.,12.0
1979-08-01 15:28:47.580 ,5,1,0.,12.0,0.,12.0,0.,12.0,0.,12.0
1979-08-01 15:28:59.580 ,5,1,0.,12.0,0.,12.0,0.,12.0,0.,12.0
1979-08-01 15:29:11.580 ,5,0,0.,12.0,0.,12.0,0.,12.0,0.,12.0
1979-08-01 15:29:23.580 ,5,0,0.,12.0,0.,12.0,0.,12.0,0.,12.0
1979-08-01 15:30:23.580 ,7,0,0.,12.0,0.,12.0,0.,12.0,0.,12.0
1979-08-01 15:30:35.580 ,7,0,0.,12.0,0.,12.0,0.,12.0,0.,12.0
1979-08-01 15:30:47.580 ,7,0,0.,12.0,0.,12.0,0.,12.0,0.,12.0
1979-08-01 15:30:59.580 ,7,0,0.,12.0,0.,12.0,0.,12.0,0.,12.0
1979-08-01 15:31:11.580 ,4,1,0.,12.0,0.,12.0,0.,12.0,0.,12.0
1979-08-01 15:31:23.580 ,4,1,0.,12.0,0.,12.0,0.,12.0,0.,12.0
1979-08-01 15:31:35.580 ,0,1,0.,12.0,0.,12.0,0.,12.0,0.,12.0
1979-08-01 15:31:47.580 ,0,1,0.,12.0,0.,12.0,0.,12.0,0.,12.0
1979-08-01 15:31:59.580 ,3,1,0.,12.0,0.,12.0,0.,12.0,0.,12.0
1979-08-01 15:32:11.580 ,3,1,0.,12.0,0.,12.0,0.,12.0,0.,12.0
1979-08-01 15:32:23.580 ,6,0,0.,12.0,0.,12.0,0.,12.0,0.,12.0
1979-08-01 15:32:35.580 ,6,0,0.,12.0,0.,12.0,0.,12.0,0.,12.0
1979-08-01 15:32:47.580 ,0,0,0.,12.0,0.,12.0,0.,12.0,0.,12.0
1979-08-01 15:32:59.580 ,0,0,0.,12.0,0.,12.0,0.,12.0,0.,12.0
1979-08-01 15:33:11.580 ,0,1,0.,12.0,0.,12.0,0.,12.0,0.,12.0
1979-08-01 15:33:23.580 ,0,1,0.,12.0,0.,12.0,0.,12.0,0.,12.0
1979-08-01 15:33:35.580 ,3,1,0.,12.0,0.,12.0,0.,12.0,0.,12.0
1979-08-01 15:33:47.580 ,3,1,0.,12.0,0.,12.0,0.,12.0,0.,12.0
1979-08-01 15:33:59.580 ,7,1,0.,12.0,0.,12.0,0.,12.0,0.,12.0
1979-08-01 15:34:11.580 ,7,1,0.,12.0,0.,12.0,0.,12.0,0.,12.0
1979-08-01 15:34:23.580 ,4,1,0.,12.0,0.,12.0,0.,12.0,0.,12.0
1979-08-01 15:34:35.580 ,4,1,0.,12.0,0.,12.0,0.,12.0,0.,12.0
1979-08-01 15:34:47.580 ,0,1,0.,12.0,0.,12.0,0.,12.0,0.,12.0
1979-08-01 15:34:59.580 ,0,1,0.,12.0,0.,12.0,0.,12.0,0.,12.0
1979-08-01 15:35:11.580 ,3,1,0.,12.0,0.,12.0,0.,12.0,0.,12.0
1979-08-01 15:35:23.580 ,3,1,1.,12.0,0.,12.0,0.,12.0,0.,12.0
1979-08-01 15:35:35.580 ,7,1,0.,12.0,0.,12.0,0.,12.0,0.,12.0
1979-08-01 15:35:47.580 ,7,1,0.,12.0,0.,12.0,0.,12.0,0.,12.0
1979-08-01 15:35:59.580 ,4,1,0.,12.0,0.,12.0,0.,12.0,0.,12.0
1979-08-01 15:36:11.580 ,4,1,0.,12.0,0.,12.0,0.,12.0,0.,12.0
1979-08-01 15:36:23.580 ,0,1,0.,12.0,0.,12.0,0.,12.0,0.,12.0
1979-08-01 15:36:35.580 ,0,1,0.,12.0,0.,12.0,0.,12.0,0.,12.0
1979-08-01 15:36:47.580 ,3,1,0.,12.0,0.,12.0,0.,12.0,0.,12.0
1979-08-01 15:36:59.580 ,3,1,0.,12.0,0.,12.0,0.,12.0,0.,12.0
1979-08-01 15:37:11.580 ,7,1,0.,12.0,0.,12.0,0.,12.0,0.,12.0
1979-08-01 15:37:23.580 ,7,1,0.,12.0,0.,12.0,0.,12.0,0.,12.0
1979-08-01 15:37:35.580 ,4,1,0.,12.0,0.,12.0,0.,12.0,0.,12.0
1979-08-01 15:37:47.580 ,4,1,0.,12.0,0.,12.0,0.,12.0,0.,12.0
1979-08-01 15:37:59.580 ,0,1,0.,12.0,0.,12.0,0.,12.0,0.,12.0
1979-08-01 15:38:11.580 ,0,1,0.,12.0,0.,12.0,0.,12.0,0.,12.0
1979-08-01 15:38:23.580 ,0,0,0.,12.0,0.,12.0,0.,12.0,0.,12.0
1979-08-01 15:38:35.580 ,0,0,0.,12.0,0.,12.0,0.,12.0,0.,12.0
1979-08-01 15:38:47.580 ,0,0,,0,,0,,0,,0
1979-08-01 15:38:59.580 ,0,0,,0,,0,,0,,0
1979-08-01 16:01:45.780 ,0,0,,0,,0,,0,,0
1979-08-01 16:01:57.780 ,0,0,0.,12.0,0.,12.0,0.,12.0,0.,12.0
1979-08-01 16:01:59.580 ,0,0,0.,12.0,0.,12.0,0.,12.0,0.,12.0
1979-08-01 16:02:11.580 ,0,0,0.,12.0,0.,12.0,0.,12.0,0.,12.0
1979-08-01 16:02:23.580 ,3,1,0.,12.0,0.,12.0,0.,12.0,0.,12.0
1979-08-01 16:02:35.580 ,3,1,0.,12.0,0.,12.0,0.,12.0,0.,12.0
1979-08-01 16:02:47.580 ,3,0,0.,12.0,0.,12.0,0.,12.0,0.,12.0
1979-08-01 16:02:59.580 ,3,0,0.,12.0,0.,12.0,0.,12.0,0.,12.0
1979-08-01 16:03:11.580 ,4,1,0.,12.0,0.,12.0,0.,12.0,0.,12.0
1979-08-01 16:03:23.580 ,4,1,0.,12.0,0.,12.0,0.,12.0,0.,12.0
1979-08-01 16:03:35.580 ,4,0,0.,12.0,0.,12.0,0.,12.0,0.,12.0
1979-08-01 16:03:47.580 ,4,0,0.,12.0,0.,12.0,0.,12.0,0.,12.0
1979-08-01 16:03:59.580 ,5,1,0.,12.0,0.,12.0,0.,12.0,0.,12.0
1979-08-01 16:04:11.580 ,5,1,0.,12.0,0.,12.0,0.,12.0,0.,12.0
1979-08-01 16:04:23.580 ,5,0,0.,12.0,0.,12.0,0.,12.0,0.,12.0
1979-08-01 16:04:35.580 ,5,0,0.,12.0,0.,12.0,0.,12.0,0.,12.0
1979-08-01 16:04:47.580 ,6,1,0.,12.0,0.,12.0,0.,12.0,0.,12.0
1979-08-01 16:04:59.580 ,6,1,0.,12.0,0.,12.0,0.,12.0,0.,12.0
1979-08-01 16:05:11.580 ,6,0,0.,12.0,0.,12.0,0.,12.0,0.,12.0
1979-08-01 16:05:23.580 ,6,0,0.,12.0,0.,12.0,0.,12.0,0.,12.0
1979-08-01 16:05:35.580 ,7,1,0.,12.0,0.,12.0,0.,12.0,0.,12.0
1979-08-01 16:05:47.580 ,7,1,0.,12.0,0.,12.0,0.,12.0,0.,12.0
1979-08-01 16:05:59.580 ,7,0,0.,12.0,0.,12.0,0.,12.0,0.,12.0
1979-08-01 16:06:11.580 ,7,0,0.,12.0,0.,12.0,0.,12.0,0.,12.0
1979-08-01 16:06:23.580 ,7,1,0.,12.0,0.,12.0,0.,12.0,0.,12.0
1979-08-01 16:06:35.580 ,7,1,0.,12.0,0.,12.0,0.,12.0,0.,12.0
1979-08-01 16:06:47.580 ,7,0,0.,12.0,0.,12.0,0.,12.0,0.,12.0
1979-08-01 16:06:59.580 ,7,0,0.,12.0,0.,12.0,0.,12.0,0.,12.0
1979-08-01 16:07:11.580 ,6,1,0.,12.0,0.,12.0,0.,12.0,0.,12.0
1979-08-01 16:07:23.580 ,6,1,0.,12.0,0.,12.0,0.,12.0,0.,12.0
1979-08-01 16:07:35.580 ,6,0,0.,12.0,0.,12.0,0.,12.0,0.,12.0
1979-08-01 16:07:47.580 ,6,0,0.,12.0,0.,12.0,0.,12.0,0.,12.0
1979-08-01 16:07:59.580 ,5,1,0.,12.0,0.,12.0,0.,12.0,0.,12.0
1979-08-01 16:08:11.580 ,5,1,0.,12.0,0.,12.0,0.,12.0,0.,12.0
1979-08-01 16:08:23.580 ,5,0,0.,12.0,0.,12.0,0.,12.0,0.,12.0
1979-08-01 16:08:35.580 ,5,0,0.,12.0,0.,12.0,0.,12.0,0.,12.0
1979-08-01 16:08:47.580 ,4,1,0.,12.0,0.,12.0,0.,12.0,0.,12.0
1979-08-01 16:08:59.580 ,4,1,0.,12.0,0.,12.0,0.,12.0,0.,12.0
1979-08-01 16:09:11.580 ,4,0,0.,12.0,0.,12.0,0.,12.0,0.,12.0
1979-08-01 16:09:23.580 ,4,0,0.,12.0,0.,12.0,0.,12.0,0.,12.0
1979-08-01 16:09:35.580 ,3,1,0.,12.0,0.,12.0,0.,12.0,0.,12.0
1979-08-01 16:09:47.580 ,3,1,0.,12.0,0.,12.0,0.,12.0,0.,12.0
1979-08-01 16:09:59.580 ,3,0,0.,12.0,0.,12.0,0.,12.0,0.,12.0
1979-08-01 16:10:11.580 ,3,0,0.,12.0,0.,12.0,0.,12.0,0.,12.0
1979-08-01 16:10:23.580 ,2,1,0.,12.0,0.,12.0,0.,12.0,0.,12.0
1979-08-01 16:10:35.580 ,2,1,0.,12.0,0.,12.0,0.,12.0,0.,12.0
1979-08-01 16:10:47.580 ,2,0,0.,12.0,0.,12.0,0.,12.0,0.,12.0
1979-08-01 16:10:59.580 ,2,0,0.,12.0,0.,12.0,0.,12.0,0.,12.0
1979-08-01 16:11:11.580 ,1,1,0.,12.0,0.,12.0,0.,12.0,0.,12.0
1979-08-01 16:11:23.580 ,1,1,0.,12.0,0.,12.0,0.,12.0,0.,12.0
1979-08-01 16:11:35.580 ,1,0,0.,12.0,0.,12.0,0.,12.0,0.,12.0
1979-08-01 16:11:47.580 ,1,0,0.,12.0,0.,12.0,0.,12.0,0.,12.0
1979-08-01 16:11:59.580 ,0,1,0.,12.0,0.,12.0,0.,12.0,0.,12.0
1979-08-01 16:12:11.580 ,0,1,0.,12.0,0.,12.0,0.,12.0,0.,12.0
1979-08-01 16:12:23.580 ,0,0,0.,12.0,0.,12.0,0.,12.0,0.,12.0
1979-08-01 16:12:35.580 ,0,0,0.,12.0,0.,12.0,0.,12.0,0.,12.0
1979-08-01 16:12:47.580 ,0,1,0.,12.0,0.,12.0,0.,12.0,0.,12.0
1979-08-01 16:12:59.580 ,0,1,0.,12.0,0.,12.0,0.,12.0,0.,12.0
1979-08-01 16:13:11.580 ,0,0,0.,12.0,0.,12.0,0.,12.0,0.,12.0
1979-08-01 16:13:23.580 ,0,0,0.,12.0,0.,12.0,0.,12.0,0.,12.0
1979-08-01 16:13:35.580 ,1,1,0.,12.0,0.,12.0,0.,12.0,0.,12.0
1979-08-01 16:13:47.580 ,1,1,0.,12.0,0.,12.0,0.,12.0,0.,12.0
1979-08-01 16:13:59.580 ,1,0,0.,12.0,0.,12.0,0.,12.0,0.,12.0
1979-08-01 16:14:11.580 ,1,0,0.,12.0,0.,12.0,0.,12.0,0.,12.0
1979-08-01 16:14:23.580 ,2,1,0.,12.0,0.,12.0,0.,12.0,0.,12.0
1979-08-01 16:14:35.580 ,2,1,1.,12.0,0.,12.0,0.,12.0,0.,12.0
1979-08-01 16:14:47.580 ,2,0,0.,12.0,0.,12.0,0.,12.0,0.,12.0
1979-08-01 16:14:59.580 ,2,0,0.,12.0,0.,12.0,1.,12.0,0.,12.0
1979-08-01 16:15:11.580 ,0,0,0.,12.0,0.,12.0,0.,12.0,0.,12.0
1979-08-01 16:15:23.580 ,0,0,0.,12.0,0.,12.0,0.,12.0,0.,12.0
1979-08-01 16:15:35.580 ,0,0,1.,12.0,1.,12.0,0.,12.0,0.,12.0
1979-08-01 16:15:47.580 ,0,0,1.,12.0,0.,12.0,0.,12.0,0.,12.0
1979-08-01 16:15:59.580 ,0,0,0.,12.0,0.,12.0,0.,12.0,0.,12.0
1979-08-01 16:16:11.580 ,0,0,0.,12.0,0.,12.0,0.,12.0,0.,12.0
1979-08-01 16:16:23.580 ,0,0,0.,12.0,0.,12.0,0.,12.0,0.,12.0
1979-08-01 16:16:35.580 ,0,0,0.,12.0,0.,12.0,0.,12.0,0.,12.0
1979-08-01 16:16:47.580 ,5,1,0.,12.0,0.,12.0,0.,12.0,0.,12.0
1979-08-01 16:16:59.580 ,5,1,0.,12.0,0.,12.0,0.,12.0,0.,12.0
1979-08-01 16:17:11.580 ,5,0,0.,12.0,0.,12.0,0.,12.0,0.,12.0
1979-08-01 16:17:23.580 ,5,0,0.,12.0,0.,12.0,0.,12.0,0.,12.0
1979-08-01 16:17:35.580 ,6,1,0.,12.0,0.,12.0,0.,12.0,0.,12.0
1979-08-01 16:17:47.580 ,6,1,0.,12.0,0.,12.0,0.,12.0,0.,12.0
1979-08-01 16:17:59.580 ,6,0,0.,12.0,0.,12.0,0.,12.0,0.,12.0
1979-08-01 16:18:11.580 ,6,0,0.,12.0,0.,12.0,0.,12.0,0.,12.0
1979-08-01 16:18:23.580 ,7,0,0.,12.0,0.,12.0,0.,12.0,0.,12.0
1979-08-01 16:18:35.580 ,7,0,0.,12.0,0.,12.0,0.,12.0,0.,12.0
1979-08-01 16:18:47.580 ,7,0,0.,12.0,0.,12.0,0.,12.0,0.,12.0
1979-08-01 16:18:59.580 ,7,0,0.,12.0,0.,12.0,0.,12.0,0.,12.0
1979-08-01 16:19:11.580 ,4,1,0.,12.0,0.,12.0,0.,12.0,0.,12.0
1979-08-01 16:19:23.580 ,4,1,0.,12.0,0.,12.0,0.,12.0,0.,12.0
1979-08-01 16:19:35.580 ,0,1,0.,12.0,0.,12.0,0.,12.0,0.,12.0
1979-08-01 16:19:47.580 ,0,1,0.,12.0,0.,12.0,0.,12.0,0.,12.0
1979-08-01 16:19:59.580 ,3,1,0.,12.0,0.,12.0,0.,12.0,0.,12.0
1979-08-01 16:20:11.580 ,3,1,0.,12.0,0.,12.0,0.,12.0,0.,12.0
1979-08-01 16:20:23.580 ,7,1,0.,12.0,0.,12.0,0.,12.0,0.,12.0
1979-08-01 16:20:35.580 ,7,1,0.,12.0,0.,12.0,0.,12.0,0.,12.0
1979-08-01 16:20:47.580 ,4,1,0.,12.0,0.,12.0,0.,12.0,0.,12.0
1979-08-01 16:20:59.580 ,4,1,0.,12.0,0.,12.0,0.,12.0,0.,12.0
1979-08-01 16:21:11.580 ,0,1,0.,12.0,0.,12.0,0.,12.0,0.,12.0
1979-08-01 16:21:23.580 ,0,1,0.,12.0,0.,12.0,0.,12.0,0.,12.0
1979-08-01 16:21:35.580 ,3,1,0.,12.0,0.,12.0,0.,12.0,0.,12.0
1979-08-01 16:21:47.580 ,3,1,0.,12.0,0.,12.0,0.,12.0,0.,12.0
1979-08-01 16:21:59.580 ,7,1,0.,12.0,0.,12.0,0.,12.0,0.,12.0
1979-08-01 16:22:11.580 ,7,1,0.,12.0,0.,12.0,0.,12.0,0.,12.0
1979-08-01 16:22:23.580 ,4,1,0.,12.0,0.,12.0,0.,12.0,0.,12.0
1979-08-01 16:22:35.580 ,4,1,0.,12.0,0.,12.0,0.,12.0,0.,12.0
1979-08-01 16:22:47.580 ,0,1,0.,12.0,0.,12.0,0.,12.0,0.,12.0
1979-08-01 16:22:59.580 ,0,1,0.,12.0,0.,12.0,0.,12.0,0.,12.0
1979-08-01 16:23:11.580 ,3,1,0.,12.0,0.,12.0,0.,12.0,0.,12.0
1979-08-01 16:23:23.580 ,3,1,0.,12.0,0.,12.0,0.,12.0,0.,12.0
1979-08-01 16:23:35.580 ,7,1,0.,12.0,0.,12.0,0.,12.0,0.,12.0
1979-08-01 16:23:47.580 ,7,1,0.,12.0,0.,12.0,0.,12.0,0.,12.0
1979-08-01 16:24:47.580 ,0,0,0.,12.0,0.,12.0,0.,12.0,0.,12.0
1979-08-01 16:24:59.580 ,0,0,0.,12.0,0.,12.0,0.,12.0,0.,12.0
1979-08-01 16:25:11.580 ,7,1,0.,12.0,0.,12.0,0.,12.0,0.,12.0
1979-08-01 16:25:23.580 ,7,1,0.,12.0,0.,12.0,0.,12.0,0.,12.0
1979-08-01 16:25:35.580 ,4,1,0.,12.0,0.,12.0,0.,12.0,0.,12.0
1979-08-01 16:25:47.580 ,4,1,0.,12.0,0.,12.0,0.,12.0,0.,12.0
1979-08-01 16:25:59.580 ,0,1,0.,12.0,0.,12.0,0.,12.0,0.,12.0
1979-08-01 16:26:11.580 ,0,1,0.,12.0,0.,12.0,0.,12.0,0.,12.0
1979-08-01 16:26:23.580 ,3,1,0.,12.0,0.,12.0,0.,12.0,0.,12.0
1979-08-01 16:26:35.580 ,3,1,0.,12.0,0.,12.0,0.,12.0,0.,12.0
1979-08-01 16:26:47.580 ,7,1,0.,12.0,0.,12.0,0.,12.0,0.,12.0
1979-08-01 16:26:59.580 ,7,1,0.,12.0,0.,12.0,0.,12.0,0.,12.0
1979-08-01 16:27:11.580 ,4,1,0.,12.0,0.,12.0,0.,12.0,0.,12.0
1979-08-01 16:27:23.580 ,4,1,0.,12.0,0.,12.0,0.,12.0,0.,12.0
1979-08-01 16:27:35.580 ,0,1,0.,12.0,0.,12.0,0.,12.0,0.,12.0
1979-08-01 16:27:47.580 ,0,1,0.,12.0,0.,12.0,0.,12.0,0.,12.0
1979-08-01 16:27:59.580 ,3,1,0.,12.0,0.,12.0,0.,12.0,0.,12.0
1979-08-01 16:28:11.580 ,3,1,0.,12.0,0.,12.0,0.,12.0,0.,12.0
1979-08-01 16:28:23.580 ,7,1,0.,12.0,0.,12.0,0.,12.0,0.,12.0
1979-08-01 16:28:35.580 ,7,1,0.,12.0,0.,12.0,0.,12.0,0.,12.0
1979-08-01 16:28:47.580 ,4,1,0.,12.0,0.,12.0,0.,12.0,0.,12.0
1979-08-01 16:28:59.580 ,4,1,0.,12.0,0.,12.0,0.,12.0,0.,12.0
1979-08-01 16:29:11.580 ,0,1,0.,12.0,0.,12.0,0.,12.0,0.,12.0
1979-08-01 16:29:23.580 ,0,1,0.,12.0,0.,12.0,0.,12.0,0.,12.0
1979-08-01 16:29:35.580 ,0,0,0.,12.0,0.,12.0,0.,12.0,0.,12.0
1979-08-01 16:29:47.580 ,0,0,0.,12.0,0.,12.0,0.,12.0,0.,12.0
1979-08-01 16:29:59.580 ,0,0,0.,12.0,0.,12.0,0.,12.0,0.,12.0
1979-08-01 16:30:11.580 ,0,0,0.,12.0,0.,12.0,0.,12.0,0.,12.0
1979-08-01 16:30:23.580 ,5,1,0.,12.0,0.,12.0,0.,12.0,0.,12.0
1979-08-01 16:30:35.580 ,5,1,0.,12.0,0.,12.0,0.,12.0,0.,12.0
1979-08-01 16:30:47.580 ,5,0,0.,12.0,0.,12.0,0.,12.0,0.,12.0
1979-08-01 16:30:59.580 ,5,0,0.,12.0,0.,12.0,0.,12.0,0.,12.0
1979-08-01 16:31:11.580 ,4,1,0.,12.0,0.,12.0,0.,12.0,0.,12.0
1979-08-01 16:31:23.580 ,4,1,0.,12.0,0.,12.0,0.,12.0,0.,12.0
1979-08-01 16:31:35.580 ,4,0,0.,12.0,0.,12.0,0.,12.0,0.,12.0
1979-08-01 16:31:47.580 ,4,0,0.,12.0,0.,12.0,0.,12.0,0.,12.0
1979-08-01 16:31:59.580 ,3,1,0.,12.0,0.,12.0,0.,12.0,0.,12.0
1979-08-01 16:32:11.580 ,3,1,0.,12.0,0.,12.0,0.,12.0,0.,12.0
1979-08-01 16:32:23.580 ,3,0,0.,12.0,0.,12.0,0.,12.0,0.,12.0
1979-08-01 16:32:35.580 ,3,0,0.,12.0,0.,12.0,0.,12.0,0.,12.0
1979-08-01 16:36:47.580 ,0,0,0.,12.0,0.,12.0,0.,12.0,0.,12.0
1979-08-01 16:36:59.580 ,0,0,0.,12.0,0.,12.0,0.,12.0,0.,12.0
1979-08-01 16:37:11.580 ,0,0,0.,12.0,0.,12.0,0.,12.0,0.,12.0
1979-08-01 16:37:23.580 ,0,0,0.,12.0,0.,12.0,0.,12.0,0.,12.0
1979-08-01 16:37:35.580 ,3,1,0.,12.0,0.,12.0,0.,12.0,0.,12.0
1979-08-01 16:37:47.580 ,3,1,0.,12.0,0.,12.0,0.,12.0,0.,12.0
1979-08-01 16:37:59.580 ,3,0,0.,12.0,0.,12.0,0.,12.0,0.,12.0
1979-08-01 16:38:11.580 ,3,0,0.,12.0,0.,12.0,0.,12.0,0.,12.0
1979-08-01 16:38:23.580 ,4,1,0.,12.0,0.,12.0,0.,12.0,0.,12.0
1979-08-01 16:38:35.580 ,4,1,0.,12.0,0.,12.0,0.,12.0,0.,12.0
1979-08-01 16:38:47.580 ,4,0,0.,12.0,0.,12.0,0.,12.0,0.,12.0
1979-08-01 16:38:59.580 ,4,0,0.,12.0,0.,12.0,0.,12.0,0.,12.0
1979-08-01 16:39:11.580 ,5,1,0.,12.0,0.,12.0,0.,12.0,0.,12.0
1979-08-01 16:39:23.580 ,5,1,0.,12.0,0.,12.0,0.,12.0,0.,12.0
1979-08-01 16:39:35.580 ,5,0,0.,12.0,0.,12.0,0.,12.0,0.,12.0
1979-08-01 16:39:47.580 ,5,0,0.,12.0,0.,12.0,0.,12.0,0.,12.0
1979-08-01 16:39:59.580 ,6,1,0.,12.0,0.,12.0,0.,12.0,0.,12.0
1979-08-01 16:40:11.580 ,6,1,0.,12.0,0.,12.0,0.,12.0,0.,12.0
1979-08-01 16:40:23.580 ,6,0,0.,12.0,0.,12.0,0.,12.0,0.,12.0
1979-08-01 16:40:35.580 ,6,0,0.,12.0,0.,12.0,0.,12.0,0.,12.0
1979-08-01 16:40:47.580 ,7,1,0.,12.0,0.,12.0,0.,12.0,0.,12.0
1979-08-01 16:40:59.580 ,7,1,0.,12.0,0.,12.0,0.,12.0,0.,12.0
1979-08-01 16:41:11.580 ,0,0,0.,12.0,0.,12.0,0.,12.0,0.,12.0
1979-08-01 16:41:23.580 ,0,0,0.,12.0,0.,12.0,1.,12.0,0.,12.0
1979-08-01 16:41:35.580 ,7,1,0.,12.0,0.,12.0,0.,12.0,0.,12.0
1979-08-01 16:41:47.580 ,7,1,0.,12.0,0.,12.0,0.,12.0,0.,12.0
1979-08-01 16:41:59.580 ,7,0,0.,12.0,0.,12.0,0.,12.0,0.,12.0
1979-08-01 16:42:11.580 ,7,0,0.,12.0,0.,12.0,0.,12.0,0.,12.0
1979-08-01 16:42:23.570 ,6,1,0.,12.0,0.,12.0,0.,12.0,0.,12.0
1979-08-01 16:42:35.570 ,6,1,0.,12.0,0.,12.0,0.,12.0,0.,12.0
1979-08-01 16:42:47.570 ,6,0,0.,12.0,0.,12.0,0.,12.0,0.,12.0
1979-08-01 16:42:59.570 ,6,0,0.,12.0,0.,12.0,0.,12.0,0.,12.0
1979-08-01 16:43:11.570 ,5,1,0.,12.0,0.,12.0,0.,12.0,0.,12.0
1979-08-01 16:43:23.570 ,5,1,0.,12.0,0.,12.0,0.,12.0,0.,12.0
1979-08-01 16:43:35.570 ,5,0,0.,12.0,0.,12.0,0.,12.0,0.,12.0
1979-08-01 16:43:47.570 ,5,0,0.,12.0,0.,12.0,0.,12.0,0.,12.0
1979-08-01 16:43:59.570 ,4,1,0.,12.0,0.,12.0,0.,12.0,0.,12.0
1979-08-01 16:44:11.570 ,4,1,0.,12.0,0.,12.0,0.,12.0,0.,12.0
1979-08-01 16:44:23.570 ,4,0,0.,12.0,0.,12.0,0.,12.0,0.,12.0
1979-08-01 16:44:35.570 ,4,0,0.,12.0,0.,12.0,0.,12.0,0.,12.0
1979-08-01 16:44:47.570 ,3,1,0.,12.0,0.,12.0,0.,12.0,0.,12.0
1979-08-01 16:44:59.570 ,3,1,0.,12.0,0.,12.0,0.,12.0,0.,12.0
1979-08-01 16:45:11.570 ,3,0,0.,12.0,0.,12.0,0.,12.0,0.,12.0
1979-08-01 16:45:23.570 ,3,0,0.,12.0,0.,12.0,0.,12.0,0.,12.0
1979-08-01 16:46:23.570 ,0,0,0.,12.0,0.,12.0,0.,12.0,0.,12.0
1979-08-01 16:46:35.570 ,0,0,0.,12.0,0.,12.0,0.,12.0,0.,12.0
1979-08-01 16:46:47.570 ,0,0,0.,12.0,0.,12.0,0.,12.0,0.,12.0
1979-08-01 16:46:59.570 ,0,0,0.,12.0,0.,12.0,0.,12.0,0.,12.0
1979-08-01 16:47:11.570 ,0,1,0.,12.0,0.,12.0,0.,12.0,0.,12.0
1979-08-01 16:47:23.570 ,0,1,0.,12.0,0.,12.0,0.,12.0,0.,12.0
1979-08-01 16:47:35.570 ,0,0,0.,12.0,0.,12.0,0.,12.0,0.,12.0
1979-08-01 16:47:47.570 ,0,0,0.,12.0,0.,12.0,0.,12.0,0.,12.0
1979-08-01 16:47:59.570 ,0,1,0.,12.0,0.,12.0,0.,12.0,0.,12.0